{"data":{"norad_id":62873,"epoch":"2026-09-21T08:41:11.438880Z","epoch_age_seconds":93663,"freshness":"FRESH","line1":"1 62873U 25022V   26264.36193795  .00014217  00000+0  43109-3 0  9994","line2":"2 62873  53.1612 297.5353 0001216 103.7135 256.4003 15.34401157 91900","mean_motion":15.34401157,"eccentricity":0.0001216,"inclination_deg":53.1612,"raan_deg":297.5353,"arg_perigee_deg":103.7135,"mean_anomaly_deg":256.4003,"bstar":0.00043109,"rev_number":9190,"period_min":93.847687316362,"perigee_km":461.86795560639,"apogee_km":463.53164711648,"semimajor_km":6840.8368013614,"source":"CELESTRAK","updated_at":"2026-09-22T09:00:49.700882Z"}}